Back to catalog

LES 5

AliveMilitaryMEO
NORAD 2866·PAYLOAD·🇺🇸 United States

Launched Jul 1, 1967 from Cape Canaveral Space Force Station

Loading…

Next Passes (next 24 hours)

TLE

FreshSource: Space-Track

Epoch: Sep 14, 2026, 14:08 UTC

1 02866U 67066E   26257.58948774 -.00000123  00000-0  00000-0 0  9998
2 02866   2.8253  93.7593 0051975 214.6940 329.7386  1.09426218132011

Track LES 5 in real time with AllMySat

Download on the App Store